Weather History for Krabi, Thailand

Change the Weather History Date:

Thursday, February 13, 2014

  Actual Average (VTSP) Record (VTSP)
Temperature  
Mean Temperature 82 °F -  
Max Temperature 96 °F 92 °F 98 °F (2003)
Min Temperature 69 °F 76 °F 69 °F (2000)
Cooling Degree Days 18    
Growing Degree Days 32 (Base 50)    
Moisture  
Dew Point 66 °F    
Average Humidity 62    
Maximum Humidity 94    
Minimum Humidity 30    
Precipitation  
Precipitation 0.00 in - - ()
Sea Level Pressure  
Sea Level Pressure 29.85 in    
Wind  
Wind Speed 4 mph ()    
Max Wind Speed 10 mph    
Max Gust Speed -    
Visibility 5.4 miles    
Events      
Averages and records for this station are not official NWS values.
T = Trace of Precipitation, MM = Missing Value Source: Averaged Metar Reports

Daily Weather History Graph

Daily Weather History Graph

Search for Another Location

Airport:

Trip Planner

Search our weather history database for the weather conditions in past years. The results will help you decide how hot, cold, wet, or windy it might be!

Date:

Astronomy

Feb. 13, 2014 Rise Set
Actual Time 6:42 AM ICT 6:34 PM ICT
Civil Twilight 6:21 AM ICT 6:55 PM ICT
Nautical Twilight 5:56 AM ICT 7:20 PM ICT
Astronomical Twilight 5:31 AM ICT 7:45 PM ICT
Moon 5:16 PM ICT (2/13) 5:10 AM ICT (2/13)
Length of Visible Light 12h 34m
Length of Day
11h 51m
Waxing Gibbous, 97% of the Moon is Illuminated
Feb 13
Waxing Gibbous
Feb 15
Full
Feb 23
Last Quarter
Mar 1
New
Mar 8
First Quarter

Hourly Weather History & Observations

Time (ICT) Temp. Heat Index Dew Point Humidity Pressure Visibility Wind Dir Wind Speed Gust Speed Precip Events Conditions
1:00 AM 77.0 °F - 71.6 °F 83% 29.86 in 6.2 mi Calm Calm - N/A   Partly Cloudy
2:00 AM 77.0 °F - 71.6 °F 83% 29.86 in 5.0 mi Variable 2.3 mph - N/A   Partly Cloudy
3:00 AM 73.4 °F - 69.8 °F 88% 29.83 in 4.3 mi NNE 2.3 mph - N/A   Unknown
5:00 AM 71.6 °F - 69.8 °F 94% 29.83 in 6.2 mi Calm Calm - N/A   Mist
6:00 AM 71.6 °F - 69.8 °F 94% 29.83 in 3.1 mi Calm Calm - N/A   Mist
7:00 AM 69.8 °F - 68.0 °F 94% 29.86 in 2.5 mi Calm Calm - N/A   Scattered Clouds
8:00 AM 75.2 °F - 69.8 °F 83% 29.89 in 4.3 mi NNE 3.5 mph - N/A   Scattered Clouds
9:00 AM 80.6 °F 83.9 °F 69.8 °F 70% 29.89 in 6.2 mi ENE 8.1 mph - N/A   Partly Cloudy
10:00 AM - - - N/A% 29.92 in 6.2 mi ENE 10.4 mph - N/A   Partly Cloudy
11:00 AM 91.4 °F 95.4 °F 68.0 °F 46% 29.92 in 6.2 mi NE 10.4 mph - N/A   Partly Cloudy
12:00 PM 95.0 °F 98.5 °F 66.2 °F 39% 29.89 in 6.2 mi East 9.2 mph - N/A   Partly Cloudy
1:00 PM 96.8 °F 98.0 °F 62.6 °F 32% 29.86 in 6.2 mi East 9.2 mph - N/A   Partly Cloudy
2:00 PM 96.8 °F 97.1 °F 60.8 °F 30% 29.83 in 6.2 mi ESE 9.2 mph - N/A   Scattered Clouds
3:00 PM 96.8 °F 97.1 °F 60.8 °F 30% 29.77 in 6.2 mi East 8.1 mph - N/A   Scattered Clouds
4:00 PM 95.0 °F 94.4 °F 59.0 °F 30% 29.77 in 6.2 mi ESE 9.2 mph - N/A   Scattered Clouds
5:00 PM 93.2 °F 92.6 °F 59.0 °F 32% 29.77 in 6.2 mi ESE 9.2 mph - N/A   Partly Cloudy
6:00 PM 89.6 °F 90.1 °F 62.6 °F 40% 29.80 in 6.2 mi ESE 9.2 mph - N/A   Partly Cloudy
7:00 PM 84.2 °F 85.6 °F 64.4 °F 51% 29.80 in - East 8.1 mph - N/A   Clear
8:00 PM 82.4 °F 84.6 °F 66.2 °F 58% 29.83 in - East 6.9 mph - N/A   Clear
9:00 PM 78.8 °F - 68.0 °F 69% 29.86 in 5.0 mi East 6.9 mph - N/A   Unknown
10:00 PM 77.0 °F - 68.0 °F 74% 29.89 in 5.0 mi ENE 6.9 mph - N/A   Unknown
11:00 PM 75.2 °F - 68.0 °F 78% 29.89 in 5.0 mi North 3.5 mph - N/A   Unknown